FW7738 Weather Reports


time (UTC)temp
C
wind
direction
speed
KPH
gust
KPH
rain 1hr
cm
rain 24hr
cm
rain mn
cm
humidity
%
barometer
mb
20260901040035 23 347 1.6 4.8 0.00 0.00 0.00 83 1016.8
20260901035030 23 346 3.2 4.8 0.00 0.00 0.00 83 1017.0
20260901034045 23 12 1.6 1.6 0.00 0.00 0.00 83 1017.0
20260901033021 23 7 1.6 3.2 0.00 0.00 0.00 83 1017.1
20260901032016 23 10 3.2 4.8 0.00 0.00 0.00 83 1017.1
20260901031031 23 5 3.2 4.8 0.00 0.00 0.00 83 1017.2
20260901030026 23 358 3.2 4.8 0.00 0.00 0.00 84 1017.1
20260901025022 23 13 1.6 3.2 0.00 0.00 0.00 84 1017.0
20260901024017 23 6 3.2 4.8 0.00 0.00 0.00 84 1017.3
20260901023033 23 354 3.2 4.8 0.00 0.00 0.00 85 1017.2
20260901022028 23 4 3.2 3.2 0.00 0.00 0.00 85 1017.5
20260901021023 24 11 3.2 4.8 0.00 0.00 0.00 85 1017.4
20260901020019 24 12 1.6 4.8 0.00 0.00 0.00 84 1017.5
20260901015055 24 22 1.6 6.4 0.00 0.00 0.00 84 1017.6
20260901014030 24 13 3.2 6.4 0.00 0.00 0.00 84 1017.5
20260901013045 24 10 1.6 3.2 0.00 0.00 0.00 84 1017.6
20260901012021 24 14 1.6 3.2 0.00 0.00 0.00 84 1017.8
20260901011016 24 0 1.6 3.2 0.00 0.00 0.00 83 1017.9
20260901010032 24 359 1.6 3.2 0.00 0.00 0.00 84 1017.9
20260901005107 24 7 1.6 3.2 0.00 0.00 0.00 84 1018.0
20260901004023 24 3 3.2 6.4 0.00 0.00 0.00 83 1018.0
20260901003018 25 2 1.6 3.2 0.00 0.00 0.00 83 1018.1
20260901002033 25 8 1.6 3.2 0.00 0.00 0.00 83 1018.2
20260901001029 25 351 1.6 3.2 0.00 0.00 0.00 83 1018.2
20260901000024 25 336 0.0 1.6 0.00 0.00 0.00 83 1018.1
20260831235019 25 39 0.0 3.2 0.00 0.00 0.00 83 1018.3
20260831234035 25 25 4.8 9.7 0.00 0.00 0.00 82 1018.3
20260831233029 25 25 4.8 9.7 0.00 0.00 0.00 82 1018.4
20260831232025 25 36 4.8 9.7 0.00 0.00 0.00 82 1018.2
20260831231020 25 29 0.0 1.6 0.00 0.00 0.00 83 1018.2
20260831230016 25 127 0.0 1.6 0.00 0.00 0.00 83 1018.2
20260831225031 25 18 1.6 6.4 0.00 0.00 0.00 83 1018.2
20260831224047 25 9 3.2 9.7 0.00 0.00 0.00 84 1018.1
20260831223022 25 20 4.8 9.7 0.00 0.00 0.00 84 1018.1
20260831222017 25 19 4.8 9.7 0.00 0.00 0.00 84 1018.0
20260831221052 25 22 4.8 6.4 0.00 0.00 0.00 84 1018.0
20260831220028 25 25 1.6 3.2 0.00 0.00 0.00 83 1018.0
20260831215023 25 23 1.6 4.8 0.00 0.00 0.00 83 1017.8
20260831214038 25 29 1.6 4.8 0.00 0.00 0.00 83 1017.8
20260831213034 25 30 1.6 4.8 0.00 0.00 0.00 83 1017.8
20260831212028 25 24 3.2 6.4 0.00 0.00 0.00 83 1017.8
20260831211024 25 48 0.0 3.2 0.00 0.00 0.00 84 1017.7
20260831210019 25 49 3.2 6.4 0.00 0.00 0.00 84 1017.5
20260831205055 25 54 1.6 3.2 0.00 0.00 0.00 84 1017.5
20260831204030 25 55 1.6 4.8 0.00 0.00 0.00 84 1017.4
20260831203045 25 54 1.6 6.4 0.00 0.00 0.00 84 1017.4
20260831202020 25 65 1.6 4.8 0.00 0.00 0.00 84 1017.2
20260831201016 24 69 0.0 3.2 0.00 0.00 0.00 84 1017.1
20260831200032 24 85 1.6 4.8 0.00 0.00 0.00 84 1017.0
20260831195026 24 78 1.6 4.8 0.00 0.00 0.00 84 1016.8
20260831194022 24 55 1.6 4.8 0.00 0.00 0.00 85 1016.6
20260831193017 24 65 1.6 4.8 0.00 0.00 0.00 84 1016.3
20260831192033 25 67 1.6 6.4 0.00 0.00 0.00 84 1016.3
20260831191028 25 66 0.0 6.4 0.00 0.00 0.00 83 1016.1
20260831190023 25 63 1.6 6.4 0.00 0.00 0.00 81 1016.1
20260831185038 25 68 3.2 11.3 0.00 0.00 0.00 81 1016.0
20260831184034 25 88 3.2 12.9 0.00 0.00 0.00 80 1015.9
20260831183029 25 82 3.2 9.7 0.00 0.00 0.00 79 1015.8
20260831182024 25 76 4.8 12.9 0.00 0.00 0.00 78 1015.9
20260831181019 25 92 4.8 12.9 0.00 0.00 0.00 78 1015.7
20260831180035 25 74 3.2 11.3 0.00 0.00 0.00 78 1015.7
20260831175030 26 65 1.6 4.8 0.00 0.00 0.00 77 1015.6
20260831174025 26 71 3.2 11.3 0.00 0.00 0.00 75 1015.6
20260831173021 26 72 4.8 12.9 0.00 0.00 0.00 76 1015.6
20260831172016 26 65 3.2 14.5 0.00 0.00 0.00 76 1015.7
20260831171031 26 67 3.2 11.3 0.00 0.00 0.00 76 1015.5
20260831170027 26 78 6.4 12.9 0.00 0.00 0.00 77 1015.5
20260831165022 26 98 8.0 17.7 0.00 0.00 0.00 77 1015.5
20260831164018 26 112 9.7 17.7 0.00 0.00 0.00 77 1015.8
20260831163033 26 122 9.7 17.7 0.00 0.00 0.00 77 1015.8
20260831162049 26 117 12.9 20.9 0.00 0.00 0.00 77 1016.0
20260831161024 26 118 11.3 22.5 0.00 0.00 0.00 77 1015.8
20260831160020 26 89 6.4 20.9 0.00 0.00 0.00 77 1015.8
20260831155035 26 107 12.9 24.1 0.00 0.00 0.00 77 1016.0
20260831154031 26 109 14.5 24.1 0.00 0.00 0.00 77 1016.0
20260831153025 26 104 11.3 20.9 0.00 0.00 0.00 75 1016.1
20260831152021 26 106 12.9 24.1 0.00 0.00 0.00 76 1016.2
20260831151016 26 89 11.3 24.1 0.00 0.00 0.00 77 1016.2
20260831150031 27 110 17.7 29.0 0.00 0.00 0.00 76 1016.0
20260831145047 26 98 19.3 30.6 0.00 0.00 0.00 77 1016.2
20260831144022 26 95 14.5 30.6 0.00 0.00 0.00 78 1016.2
20260831143017 27 90 11.3 29.0 0.00 0.00 0.00 76 1016.3
20260831142032 27 84 14.5 30.6 0.00 0.00 0.00 76 1016.2
20260831141028 27 86 19.3 30.6 0.00 0.00 0.00 75 1016.1
20260831140023 27 89 11.3 27.4 0.00 0.00 0.00 74 1016.3
20260831135018 27 80 12.9 35.4 0.00 0.00 0.00 73 1016.3
20260831134034 27 69 11.3 25.7 0.00 0.00 0.00 74 1016.4
20260831133050 27 73 12.9 29.0 0.00 0.00 0.00 71 1016.2
20260831132025 27 75 11.3 27.4 0.00 0.00 0.00 72 1016.3
20260831131020 28 66 12.9 35.4 0.00 0.00 0.00 70 1016.3
20260831130035 28 67 12.9 33.8 0.00 0.00 0.00 70 1016.2
20260831125031 27 74 12.9 30.6 0.00 0.00 0.00 70 1016.5
20260831124026 28 64 12.9 33.8 0.00 0.00 0.00 67 1016.6
20260831123023 28 71 11.3 30.6 0.00 0.00 0.00 67 1016.6
20260831122037 28 88 11.3 30.6 0.00 0.00 0.00 66 1016.6
20260831121032 28 73 8.0 20.9 0.00 0.00 0.00 69 1016.7
20260831120028 28 70 9.7 22.5 0.00 0.00 0.00 69 1016.8
20260831115043 28 83 11.3 24.1 0.00 0.00 0.00 70 1016.9
20260831114018 28 87 12.9 30.6 0.00 0.00 0.00 69 1017.0
20260831113034 28 94 14.5 29.0 0.00 0.00 0.00 67 1016.8
20260831112029 27 81 11.3 30.6 0.00 0.00 0.00 70 1017.0
20260831111024 27 83 11.3 27.4 0.00 0.00 0.00 73 1017.0
20260831110040 27 87 17.7 35.4 0.00 0.00 0.00 74 1017.1
20260831105035 27 94 12.9 29.0 0.00 0.00 0.00 72 1017.1
20260831104050 27 79 11.3 24.1 0.00 0.00 0.00 72 1017.2
20260831103045 27 85 16.1 27.4 0.00 0.00 0.00 72 1017.2
20260831102020 28 88 14.5 29.0 0.00 0.00 0.00 71 1017.1
20260831101016 28 82 11.3 30.6 0.00 0.00 0.00 68 1017.0
20260831100031 28 112 11.3 22.5 0.00 0.00 0.00 68 1016.9
20260831095026 27 101 11.3 25.7 0.00 0.00 0.00 70 1016.9
20260831094021 27 85 9.7 24.1 0.00 0.00 0.00 69 1017.0
20260831093017 27 80 8.0 20.9 0.00 0.00 0.00 70 1016.9
20260831092033 27 71 6.4 14.5 0.00 0.00 0.00 70 1016.8
20260831091028 27 73 8.0 22.5 0.00 0.00 0.00 69 1016.6
20260831090023 27 59 8.0 14.5 0.00 0.00 0.00 70 1016.5
20260831085018 26 60 6.4 14.5 0.00 0.00 0.00 71 1016.5
20260831084034 27 64 1.6 9.7 0.00 0.00 0.00 68 1016.5
20260831083029 26 80 3.2 11.3 0.00 0.00 0.00 71 1016.5
20260831082024 27 98 3.2 6.4 0.00 0.00 0.00 69 1016.4
20260831081019 26 87 1.6 6.4 0.00 0.00 0.00 71 1016.4
20260831080034 26 45 1.6 6.4 0.00 0.00 0.00 71 1016.2
20260831075030 26 10 0.0 1.6 0.00 0.00 0.00 71 1016.2
20260831074026 26 234 0.0 3.2 0.00 0.00 0.00 70 1016.3
20260831073021 25 264 1.6 3.2 0.00 0.00 0.00 70 1016.2
20260831072015 25 281 1.6 4.8 0.00 0.00 0.00 72 1016.1
20260831071031 24 279 1.6 3.2 0.00 0.00 0.00 72 1015.9
20260831070026 24 262 1.6 3.2 0.00 0.00 0.00 69 1015.8
20260831065021 23 339 0.0 1.6 0.00 0.00 0.00 69 1015.7
20260831064016 23 313 0.0 1.6 0.00 0.00 0.00 69 1015.7
20260831063032 23 320 1.6 3.2 0.00 0.00 0.00 68 1015.6
20260831062027 22 324 1.6 3.2 0.00 0.00 0.00 67 1015.4
20260831061043 22 0.0 0.0 0.00 0.00 0.00 71 1015.4
20260831060018 21 0.0 0.0 0.00 0.00 0.00 72 1015.2
20260831055033 21 0.0 0.0 0.00 0.00 0.00 73 1015.0
20260831054029 22 0.0 0.0 0.00 0.00 0.00 71 1015.0
20260831053024 22 0.0 0.0 0.00 0.00 0.00 71 1015.1
20260831052020 22 313 0.0 1.6 0.00 0.00 0.00 69 1014.8
20260831051035 22 291 3.2 4.8 0.00 0.00 0.00 69 1014.6
20260831050050 21 311 1.6 3.2 0.00 0.00 0.00 71 1014.7
20260831045025 21 0.0 0.0 0.00 0.00 0.00 74 1014.7
20260831044020 21 318 0.0 3.2 0.00 0.00 0.00 74 1014.7
20260831043015 21 322 3.2 4.8 0.00 0.00 0.00 75 1014.6
20260831042031 21 337 1.6 3.2 0.00 0.00 0.00 77 1014.5
20260831041026 21 338 1.6 4.8 0.00 0.00 0.00 79 1014.5